Location: Trebic
(49.2170°N, 15.8830°E)
Time: 14:43:01
(UTC+02:00)

Transit 4A - Pass Details

Date: 25 July 2019
Orbit: 863 x 981 km, 66.8° (Epoch: 20 August)

Event Time Altitude Azimuth Distance (km) Brightness Sun altitude
Exits shadow 03:48:41 - 262° (W) 3,158 10.2 -11.8°
Reaches altitude 10° 03:50:04 10° 268° (W) 2,732 10.0 -11.7°
Maximum altitude 03:55:34 29° 327° (NNW) 1,717 9.5 -11.1°
Drops below altitude 10° 04:01:04 10° 26° (NNE) 2,734 11.7 -10.5°
Sets 04:04:02 0° 38° (NE) 3,674 13.3 -10.2°
